[[{"header":{"parameterUnit":"m.s-1","parameterCategory":1,"la1":30.2992,"la2":30.254,"lo1":-89.0895,"lo2":-89.0443,"dy":0.0025,"dx":0.0025,"nx":19,"ny":19,"refTime":"2026-05-03T21:00:00:Z","depth":0,"parameterNumber":2,"parameterNumberName":"U-component_of_WINDS"},"data":[0,0,0,-0.8681,-0.8681,-0.868,-0.868,-0.8683,-0.8683,0,0,0,0,0,0,0,0,0,0,0,-0.8682,-0.8682,-0.8681,-0.8681,-0.868,-0.868,-0.8683,-0.8683,0,0,0,0,0,0,0,0,0,0,0,-0.8682,-0.8682,-0.8683,-0.8681,-0.868,-0.868,-0.8683,-0.8682,0,0,0,0,0,0,0,0,0,0,-0.8682,-0.8685,-0.8682,-0.8683,-0.8681,-0.868,-0.868,-0.8682,-0.8682,-0.8685,0,-0.8686,0,-0.8685,-0.8683,-0.8683,0,0,0,-0.868,-0.8685,-0.8683,-0.8683,-0.8681,-0.868,-0.868,-0.8682,-0.8682,-0.8685,-0.8686,-0.8687,-0.8685,-0.8683,-0.8683,-0.8701,-0.8701,0,0,-0.868,-0.8683,-0.8683,-0.8684,-0.8683,-0.868,-0.868,-0.8682,-0.8684,-0.8686,-0.8687,-0.8685,-0.8683,-0.8683,-0.8701,-0.8701,0,0,0,-0.868,-0.8683,-0.8681,-0.8684,-0.8683,-0.868,-0.868,-0.8684,-0.8683,-0.8687,-0.8685,-0.8683,-0.8683,-0.8701,-0.8701,-0.8711,0,0,0,-0.868,-0.8684,-0.8682,-0.8684,-0.8683,-0.8683,-0.8682,-0.8683,-0.8683,-0.8685,-0.8683,-0.8683,-0.87,-0.8701,-0.871,-0.8715,0,0,0,-0.8682,-0.8684,-0.8684,-0.8684,-0.8684,-0.8683,-0.8683,-0.8683,-0.8682,-0.8683,-0.8683,-0.87,-0.8701,-0.871,-0.8714,-0.8721,0,0,0,-0.8684,-0.8692,-0.8684,-0.8693,-0.8684,-0.869,-0.8683,-0.8687,-0.8689,-0.8683,-0.87,-0.8701,-0.8709,-0.8713,-0.872,-0.8727,-0.873,0,0,-0.8696,-0.8694,-0.8699,-0.8692,-0.87,-0.8689,-0.87,-0.8698,-0.8695,-0.8699,-0.87,-0.871,-0.8714,-0.872,-0.8747,-0.875,0,0,0,-0.8704,-0.8707,-0.8709,-0.8711,-0.871,-0.871,-0.8707,-0.8707,-0.8711,-0.8698,-0.8715,-0.8717,-0.8721,-0.8724,-0.8726,-0.8729,-0.8702,-0.8702,-0.8702,-0.8724,-0.8721,-0.8729,-0.8726,-0.8729,-0.8726,-0.8728,-0.8728,-0.8723,-0.8727,-0.8728,-0.8745,-0.8748,-0.875,-0.8754,-0.8732,-0.8732,-0.8732,-0.8732,-0.8741,-0.8746,-0.8741,-0.8747,-0.8744,-0.8749,-0.8749,-0.8746,-0.8751,-0.8743,-0.8747,-0.8738,-0.8753,-0.8756,-0.8733,-0.8733,-0.8733,-0.8732,-0.8732,-0.8754,-0.8755,-0.8756,-0.876,-0.8764,-0.8761,-0.8767,-0.8764,-0.8762,-0.8765,-0.8766,-0.8766,-0.8765,-0.8766,-0.8766,-0.8766,-0.8766,-0.8766,-0.8766,-0.8766,-0.8767,-0.8771,-0.8773,-0.8775,-0.8778,-0.8778,-0.878,-0.8782,-0.8779,-0.8779,-0.8775,-0.8755,-0.875,-0.8767,-0.8767,-0.8767,-0.8767,-0.8767,-0.8784,-0.878,-0.8787,-0.879,-0.8793,-0.8798,-0.8795,-0.88,-0.8802,-0.8805,-0.8801,-0.8787,-0.8784,-0.8782,-0.8778,-0.8801,-0.8801,-0.8801,-0.8801,-0.8794,-0.8793,-0.8801,-0.8805,-0.8809,-0.8808,-0.8818,-0.8819,-0.8819,-0.882,-0.8817,-0.8812,-0.881,-0.8808,-0.8806,-0.8802,-0.883,-0.8831,-0.8831,-0.8805,-0.8804,-0.8813,-0.8813,-0.8816,-0.8819,-0.8829,-0.8835,-0.8834,-0.8832,-0.8822,-0.882,-0.8811,-0.8809,-0.8804,-0.88,-0.8793,0,0]},{"header":{"parameterUnit":"m.s-1","parameterCategory":1,"la1":30.2992,"la2":30.254,"lo1":-89.0895,"lo2":-89.0443,"dy":0.0025,"dx":0.0025,"nx":19,"ny":19,"refTime":"2026-05-03T21:00:00:Z","depth":0,"parameterNumber":3,"parameterNumberName":"V-component_of_WINDS"},"data":[0,0,0,4.3735,4.3734,4.3713,4.3713,4.3681,4.3681,0,0,0,0,0,0,0,0,0,0,0,4.374,4.374,4.3735,4.3734,4.3713,4.3713,4.3681,4.3681,0,0,0,0,0,0,0,0,0,0,0,4.374,4.374,4.374,4.3734,4.3713,4.3713,4.3681,4.3698,0,0,0,0,0,0,0,0,0,0,4.372,4.3724,4.374,4.374,4.3734,4.3713,4.3713,4.3699,4.3697,4.3689,0,4.3683,0,4.3682,4.3678,4.3678,0,0,0,4.3734,4.3726,4.3721,4.3739,4.3734,4.3713,4.3723,4.3698,4.3696,4.3687,4.3683,4.3682,4.3681,4.3678,4.3678,4.3636,4.3635,0,0,4.3736,4.3735,4.3723,4.372,4.3725,4.3723,4.3722,4.3697,4.3692,4.3683,4.3681,4.3681,4.3678,4.3678,4.3636,4.3636,0,0,0,4.3739,4.3736,4.3732,4.3721,4.3718,4.3723,4.3721,4.3693,4.3692,4.3681,4.368,4.3678,4.3677,4.3636,4.3636,4.3626,0,0,0,4.374,4.3738,4.3733,4.3732,4.3718,4.3705,4.3718,4.3694,4.3691,4.368,4.3678,4.3677,4.3636,4.3636,4.3626,4.362,0,0,0,4.3742,4.3738,4.3735,4.3732,4.3723,4.3706,4.3703,4.3693,4.3691,4.3678,4.3677,4.3636,4.3636,4.3627,4.3622,4.3609,0,0,0,4.3743,4.3725,4.3735,4.3714,4.3723,4.3701,4.3704,4.3686,4.3674,4.3678,4.3636,4.3636,4.3627,4.3622,4.361,4.3599,4.3594,0,0,4.372,4.3722,4.371,4.3718,4.3694,4.3704,4.3677,4.3666,4.3664,4.3645,4.3644,4.3626,4.3622,4.3609,4.3569,4.3566,0,0,0,4.3702,4.3693,4.3687,4.3677,4.3669,4.3662,4.3655,4.3651,4.3635,4.3655,4.3619,4.3616,4.3609,4.3603,4.36,4.3594,4.3633,4.3633,4.3633,4.3667,4.3668,4.3648,4.3646,4.3636,4.363,4.3622,4.3615,4.3617,4.3608,4.3602,4.3578,4.3572,4.3569,4.3563,4.3597,4.3597,4.3597,4.3597,4.3633,4.362,4.3625,4.3608,4.3608,4.3593,4.3586,4.3588,4.3573,4.3582,4.3576,4.3586,4.3566,4.356,4.3596,4.3596,4.3596,4.3596,4.3596,4.3609,4.3604,4.36,4.3586,4.3575,4.3573,4.3559,4.356,4.356,4.3553,4.3547,4.3547,4.3547,4.3551,4.355,4.355,4.355,4.355,4.355,4.3586,4.3583,4.3572,4.3563,4.3557,4.3549,4.3543,4.3537,4.3529,4.353,4.353,4.3533,4.3564,4.3572,4.3549,4.3549,4.3549,4.3549,4.355,4.355,4.3559,4.3542,4.3536,4.3526,4.3514,4.3516,4.3502,4.3497,4.349,4.3494,4.3517,4.3519,4.3521,4.3527,4.3495,4.3495,4.3495,4.3495,4.353,4.3532,4.3515,4.3505,4.3496,4.3496,4.3475,4.3471,4.3467,4.3463,4.3468,4.3476,4.3479,4.3479,4.3482,4.3488,4.3446,4.3446,4.3446,4.3507,4.3509,4.3492,4.349,4.3483,4.3475,4.3456,4.3444,4.3441,4.3444,4.346,4.3462,4.3476,4.348,4.3483,4.3488,4.3499,0,0]}]]